NIMBUS 2 DEB, 40642

Orbit data source: Space-Track

NIMBUS 2 DEB, 40642 is space debris in SSO originally from a launch on Sun, 15 May 1966 UTC launched from the Air Force Western Test Range (AFWTR). Debris objects in space refer to the collection of defunct objects orbiting the Earth. Examples of debris include non-operational satellites, rocket bodies, and fragments generated from explosions, collisions, or faulty payload assembly.

Loading next visibility...
Identifier
40642, 1966-040BF
Orbit
SSO
Country
Flag of USUS
Related business
Manufacturer
Unknown
Mission
Spacecraft
Bus & Motor
Unknown
Mass
Unknown
Launch date (UTC)
1966-05-15 (60 years ago)
Launch vehicle
Unknown
Launch site
Air Force Western Test Range (AFWTR)
Object type
Payload
Rocket body
Debris
Shape & HBR
Unknown shape, 0.1 m
Radar Cross Section
Small (<0.1 m²)

Expand to show TLE details & history
Last TLE update: 1 week ago

TLE from 1 week ago
0 NIMBUS 2 DEB
1 40642U 66040BF  26255.71746893  .00003375  00000-0  44693-2 0  9993
2 40642 100.3137 174.4821 0035235 198.9748 161.0080 13.61364324557336
Epoch: 2026-09-12T17:13Z
TLE epoch observation values (Epoch: 2026-09-12T17:13:09.315Z)
Latitude
0.00001°
Longitude
-75.52918°
Altitude
1,058.216 km
Speed
7.311 km/s
True Right ascension
11h 37m 55s
True Declination
0° 00' 00"
Sunlit
Object was in daylight at epoch
Visualization orbit readout
Latitude
Unknown
Longitude
Unknown
Altitude
Unknown
Speed
Unknown
Apparent Right ascension
Unknown
Apparent Declination
Unknown
Sunlit
N/A
Visualization observer readout
Local Sidereal Time
19:19:23
Azimuth
Unknown
Elevation
Unknown
Doppler factor
Unknown
Orbital elements
Apogee altitude
1,054.152 km
Perigee altitude
1,001.961 km
Semi-major axis
7,406.194 km
Eccentricity
0.00352
Inclination
100.3137°
RAAN
174.4821°
Arg. of periapsis
198.9748°
True anomaly
161.13885°
Mean anomaly
161.008°
Eccentric anomaly
161.07348°
Mean motion
3.40526 °/min
Orbital period
105.72 mins
BSTAR
0.0044693
Loading maneuver chart data...
Computing Atmospheric mass density...
Loading historical data...
Loading historical data...
Loading historical data...
Loading historical data...
Loading historical data...
Loading historical data...
Loading historical data...

Documentation

Showing up to 5 results
|